User: anonymous
Location: Columbia
(38.9520°N, 92.3340°W)
Time: 02:01:54
(UTC-05:00)
Language:

Iridium 52 - Orbit

View from above orbital plane
View from above orbital plane
View from above satellite
View from above satellite

Ground track
Ground track

The orbit data is extracted from the following two-line orbital elements,

1 25169U 98010A   14210.23406626  .00000194  00000-0  62233-4 0  6203
2 25169 086.3937 070.9258 0002168 099.9599 029.3996 14.34219479860713
Epoch (UTC): 29 July 2014 05:37:03
Eccentricity: 0.0002168
inclination: 86.3937°
perigee height: 776 km
apogee height: 779 km
right ascension of ascending node: 70.9258°
argument of perigee: 99.9599°
revolutions per day: 14.34219479
mean anomaly at epoch: 29.3996°
orbit number at epoch: 86071

The dashed part of the orbit path shows where the satellite is in the earth's shadow,  

DLR